Lid_Strength_Index
8 8 8 9 11 8 10 11 12 11 10 7 6 6 6 5 5 5 4 4 4 3 3 2 2 2 2 2 1 1 1 1
8 8 8 9 8 11 11 14 15 12 11 9 8 7 6 6 6 5 4 4 4 3 3 2 2 2 1 1 1 1 1 1
9 10 10 10 10 10 9 10 13 14 11 7 7 6 6 5 5 5 4 4 4 3 3 2 2 2 2 1 1 1 1 1
9 7 8 8 9 9 11 12 10 10 10 6 6 5 5 5 4 4 4 4 3 3 3 3 2 2 2 2 2 1 1 1
10 8 7 9 8 8 9 9 11 11 10 6 5 5 5 5 4 4 4 4 4 3 3 3 3 2 2 2 2 1 1 1
12 10 8 9 8 8 9 10 10 10 8 6 6 6 5 5 5 4 4 4 4 4 3 3 3 2 2 2 1 1 1 1
9 8 8 8 8 8 9 8 10 8 9 6 6 6 5 5 5 5 5 4 4 4 4 3 3 3 2 2 1 1 1 1
10 8 8 9 8 8 8 8 8 8 8 5 5 5 5 5 5 5 5 4 4 4 3 3 3 3 2 2 2 1 2 2
12 9 9 11 8 8 7 7 7 9 7 5 6 6 5 5 5 5 5 4 4 4 3 3 3 2 2 2 1 2 2 2
12 11 14 9 6 7 7 6 6 6 5 5 5 4 4 4 4 5 4 4 3 3 3 2 2 2 1 1 2 2 2 2
13 12 10 9 8 8 8 8 5 6 5 5 5 5 5 4 3 3 3 3 3 2 2 2 2 2 2 2 2 2 2 2
12 14 14 11 8 7 7 10 6 6 6 6 6 8 6 4 3 3 3 3 3 2 2 2 2 2 2 2 2 2 2 2
14 15 12 9 8 7 12 10 7 6 6 6 7 6 5 4 4 3 3 3 2 2 3 2 2 2 3 2 3 2 1 1
14 15 16 7 8 11 8 6 6 6 6 6 5 5 4 4 4 4 4 3 3 3 3 2 2 2 3 3 2 1 1 2
12 13 8 6 7 6 5 6 5 5 5 5 5 5 4 5 4 4 4 4 3 3 3 2 2 2 3 2 2 2 2 2
11 9 8 7 5 5 4 5 4 4 4 4 6 5 5 4 4 4 3 3 3 3 3 3 2 2 2 2 1 2 2 2
10 9 8 7 6 5 5 5 5 5 4 4 5 5 5 5 4 4 3 3 3 3 3 3 2 2 1 1 1 2 2 2
11 8 8 7 5 5 6 6 5 5 5 4 4 4 3 4 4 3 4 3 3 3 3 3 2 2 1 1 1 2 2 2
8 6 7 6 7 6 7 7 6 6 6 6 5 3 3 4 4 4 3 3 3 3 3 2 2 2 1 1 1 1 2 2